Weather History for New York, NY

Change the Weather History Date:

Friday, April 12, 2013

  Actual Average Record
Temperature  
Mean Temperature 45 °F 52 °F  
Max Temperature 48 °F 60 °F 86 °F (1977)
Min Temperature 42 °F 43 °F 29 °F (1976)
Degree Days  
Heating Degree Days 20 14  
Month to date heating degree days 177 188  
Since 1 July heating degree days 4124 4324  
Cooling Degree Days 0 0  
Month to date cooling degree days 0 0  
Year to date cooling degree days 0 0  
Moisture  
Dew Point 39 °F    
Average Humidity 80    
Maximum Humidity 89    
Minimum Humidity 71    
Precipitation  
Precipitation 0.57 in 0.14 in 1.59 in (2007)
Month to date precipitation 1.00 1.69  
Year to date precipitation 9.27 11.59  
Snow  
Snow 0.00 in 0.10 in 1.30 in (1959)
Month to date snowfall 0.0 0.4  
Since 1 July snowfall 22.2 26.8  
Snow Depth 0.00 in    
Sea Level Pressure  
Sea Level Pressure 29.86 in    
Wind  
Wind Speed 17 mph (ENE)    
Max Wind Speed 26 mph    
Max Gust Speed 35 mph    
Visibility 6 miles    
Events Rain    
T = Trace of Precipitation, MM = Missing Value Source: NWS Daily Summary

Daily Weather History Graph

Daily Weather History Graph

Search for Another Location

Airport:

Trip Planner

Search our weather history database for the weather conditions in past years. The results will help you decide how hot, cold, wet, or windy it might be!

Date:

Astronomy

Apr. 12, 2013 Rise Set
Actual Time 6:20 AM EDT 7:32 PM EDT
Civil Twilight 5:52 AM EDT 8:00 PM EDT
Nautical Twilight 5:19 AM EDT 8:34 PM EDT
Astronomical Twilight 4:43 AM EDT 9:09 PM EDT
Moon 7:28 AM EDT (4/12) 10:01 PM EDT (4/12)
Length of Visible Light 14h 07m
Length of Day
13h 11m
Waxing Crescent, 5% of the Moon is Illuminated
Apr 12
Waxing Crescent
Apr 18
First Quarter
Apr 25
Full
May 2
Last Quarter
May 9
New

Hourly Weather History & Observations

Time (EDT) Temp. Windchill Dew Point Humidity Pressure Visibility Wind Dir Wind Speed Gust Speed Precip Events Conditions
12:51 AM 46.9 °F - 39.0 °F 74% 30.02 in 10.0 mi NE 15.0 mph - N/A   Overcast
1:51 AM 46.0 °F 39.6 °F 39.0 °F 76% 30.01 in 10.0 mi ENE 15.0 mph - N/A   Overcast
2:13 AM 46.4 °F 40.7 °F 39.2 °F 76% 30.01 in 10.0 mi NE 12.7 mph - N/A   Overcast
2:51 AM 46.0 °F 41.4 °F 39.0 °F 76% 30.00 in 10.0 mi ENE 9.2 mph 19.6 mph N/A   Overcast
3:51 AM 46.9 °F - 37.9 °F 71% 30.00 in 10.0 mi East 21.9 mph - N/A   Overcast
4:43 AM 44.6 °F 37.2 °F 39.2 °F 81% 29.99 in 6.0 mi East 17.3 mph - N/A   Haze
4:51 AM 45.0 °F 38.2 °F 41.0 °F 86% 29.99 in 4.0 mi East 15.0 mph 23.0 mph 0.00 in Rain Light Rain
5:35 AM 44.6 °F 37.4 °F 39.2 °F 81% 29.98 in 10.0 mi East 16.1 mph - 0.00 in   Light Drizzle
5:51 AM 44.1 °F 35.7 °F 37.9 °F 79% 29.97 in 10.0 mi ENE 20.7 mph 26.5 mph 0.00 in   Light Drizzle
6:51 AM 45.0 °F 36.9 °F 36.0 °F 71% 29.95 in 10.0 mi East 20.7 mph 27.6 mph 0.00 in   Overcast
7:51 AM 44.1 °F 36.2 °F 36.0 °F 73% 29.92 in 10.0 mi East 18.4 mph 27.6 mph 0.01 in Rain Light Rain
8:20 AM 42.8 °F 33.8 °F 37.4 °F 81% 29.91 in 2.5 mi East 21.9 mph 31.1 mph 0.01 in Rain Light Rain
8:28 AM 42.8 °F 34.8 °F 37.4 °F 81% 29.91 in 7.0 mi East 17.3 mph 28.8 mph 0.01 in Rain Light Rain
8:51 AM 43.0 °F 34.0 °F 37.0 °F 80% 29.90 in 6.0 mi East 21.9 mph 27.6 mph 0.01 in Rain Light Rain
9:08 AM 42.8 °F 35.1 °F 37.4 °F 81% 29.91 in 3.0 mi East 16.1 mph - 0.02 in Rain Light Rain
9:28 AM 42.8 °F 35.4 °F 37.4 °F 81% 29.90 in 1.0 mi ENE 15.0 mph 25.3 mph 0.07 in Rain Heavy Rain
9:40 AM 42.8 °F 35.8 °F 39.2 °F 87% 29.91 in 1.0 mi East 13.8 mph - 0.18 in Rain Heavy Rain
9:45 AM 42.8 °F 35.8 °F 37.4 °F 81% 29.90 in 2.0 mi ENE 13.8 mph - 0.21 in Rain Heavy Rain
9:51 AM 42.1 °F 34.5 °F 37.9 °F 85% 29.90 in 2.0 mi ENE 15.0 mph - 0.22 in Rain Rain
10:44 AM 42.8 °F 36.2 °F 37.4 °F 81% 29.90 in 5.0 mi East 12.7 mph 20.7 mph 0.10 in Rain Rain
10:51 AM 42.8 °F 34.3 °F 37.4 °F 81% 29.89 in 4.0 mi ENE 19.6 mph 25.3 mph N/A Rain Rain
11:51 AM 43.0 °F 34.5 °F 37.9 °F 82% 29.88 in 7.0 mi ENE 19.6 mph 26.5 mph 0.08 in Rain Rain
12:51 PM 43.0 °F 35.7 °F 39.0 °F 86% 29.82 in 10.0 mi ENE 15.0 mph - 0.04 in Rain Light Rain
1:51 PM 43.0 °F 35.1 °F 39.0 °F 86% 29.80 in 10.0 mi NE 17.3 mph - 0.00 in   Overcast
2:00 PM 42.8 °F 35.1 °F 39.2 °F 87% 29.80 in 2.5 mi NE 16.1 mph - 0.01 in Rain Light Rain
2:47 PM 42.8 °F 33.8 °F 39.2 °F 87% 29.78 in 5.0 mi NE 21.9 mph 28.8 mph 0.06 in Rain Light Rain
2:51 PM 43.0 °F 33.8 °F 39.0 °F 86% 29.78 in 5.0 mi NE 23.0 mph - 0.06 in Rain Light Rain
3:47 PM 42.8 °F 33.8 °F 39.2 °F 87% 29.75 in 2.0 mi NE 21.9 mph - 0.01 in Rain Light Rain
3:51 PM 43.0 °F 33.8 °F 39.0 °F 86% 29.75 in 2.0 mi NE 23.0 mph - 0.01 in Rain Light Rain
4:19 PM 42.8 °F 33.1 °F 39.2 °F 87% 29.75 in 3.0 mi NE 25.3 mph 31.1 mph 0.00 in   Overcast
4:51 PM 42.8 °F 33.8 °F 39.2 °F 87% 29.74 in 7.0 mi NE 21.9 mph 29.9 mph N/A   Overcast
5:51 PM 43.0 °F 34.5 °F 39.0 °F 86% 29.75 in 7.0 mi NE 19.6 mph 28.8 mph N/A   Overcast
6:51 PM 43.0 °F 34.5 °F 39.0 °F 86% 29.74 in 4.0 mi NE 19.6 mph 29.9 mph N/A   Overcast
7:51 PM 43.0 °F 34.8 °F 39.9 °F 89% 29.72 in 6.0 mi NE 18.4 mph - N/A   Overcast
8:51 PM 44.1 °F 36.5 °F 39.9 °F 85% 29.73 in 7.0 mi NE 17.3 mph - N/A   Overcast
9:51 PM 43.0 °F 36.4 °F 39.0 °F 86% 29.73 in 7.0 mi NNE 12.7 mph - N/A   Overcast
10:51 PM 43.0 °F 38.8 °F 39.9 °F 89% 29.75 in 10.0 mi NNE 6.9 mph - 0.00 in   Light Drizzle
11:51 PM 43.0 °F 37.7 °F 39.9 °F 89% 29.75 in 10.0 mi NE 9.2 mph - 0.00 in   Light Drizzle